Location: Sabalos
(43.2860°N, 0.1414°E)
Time: 00:27:44
(UTC+00:00)

IRIS - Pass Details

Date: 05 July 2020
Orbit: 279 x 2722 km, 41.2° (Epoch: 03 August)

Event Time Altitude Azimuth Distance (km) Brightness Sun altitude
Rises 20:34:40 0° 250° (WSW) 2,805 8.8 -8.4°
Reaches altitude 10° 20:37:26 10° 243° (WSW) 1,605 7.5 -8.7°
Maximum altitude 20:40:39 42° 171° (S) 517 4.3 -9.2°
Enters shadow 20:42:53 11° 98° (E) 1,118 5.9 -9.5°
